Location: Nebula Knoll Observatory
(43.6666°N, 71.0000°W)
Time: 17:51:09
(UTC-04:00)

Cosmos 1782 - Visible Passes

Search period start: 28 April 2016 00:00
Search period end: 08 May 2016 00:00
Orbit: 541 x 555 km, 82.5° (Epoch: 27 April)

Date Brightness Start Highest point End Pass type
(mag) Time Alt. Az. Time Alt. Az. Time Alt. Az.
28 Apr 3.0 21:44:35 25° SSW 21:46:52 72° W 21:50:53 10° N visible
29 Apr 3.1 21:38:53 16° SSW 21:42:00 66° W 21:46:02 10° N visible
30 Apr 3.3 21:33:12 10° SSW 21:37:09 61° W 21:41:10 10° N visible
01 May 3.5 21:28:22 10° SSW 21:32:18 56° W 21:36:17 10° N visible
02 May 3.6 21:23:32 10° SSW 21:27:27 52° WNW 21:31:24 10° N visible
03 May 3.8 21:18:43 10° SSW 21:22:35 48° WNW 21:26:31 10° N visible
04 May 4.0 21:13:54 10° SSW 21:17:44 44° WNW 21:21:37 10° N visible
05 May 4.2 21:09:05 10° SSW 21:12:53 41° WNW 21:16:43 10° N visible
06 May 4.4 21:04:16 10° SW 21:08:01 38° WNW 21:11:49 10° N visible
07 May 4.6 20:59:27 10° SW 21:03:09 35° WNW 21:06:54 10° N visible
